FW2972 Weather Reports


Display with metric or nautical units.
time (UTC)temp
F
wind
direction
speed
MPH
gust
MPH
rain 1hr
in
rain 24hr
in
rain mn
in
humidity
%
barometer
mb
20260905010203 85 160 2.0 3.0 0.00 0.18 0.18 85 1013.5
20260905005700 86 124 1.0 3.0 0.00 0.18 0.18 85 1013.4
20260905005155 86 141 0.0 2.0 0.00 0.18 0.18 85 1013.5
20260905004649 86 155 3.0 4.0 0.00 0.18 0.18 84 1013.6
20260905004144 86 193 1.0 8.0 0.00 0.18 0.18 84 1013.7
20260905003640 86 191 0.0 6.0 0.00 0.18 0.18 84 1013.5
20260905003135 86 206 1.0 3.0 0.00 0.18 0.18 84 1013.3
20260905002631 86 164 4.0 5.0 0.00 0.18 0.18 84 1013.4
20260905002125 87 180 1.0 3.0 0.00 0.18 0.18 83 1013.3
20260905001621 87 176 0.0 7.0 0.00 0.18 0.18 84 1013.3
20260905001120 87 218 0.0 4.0 0.00 0.18 0.18 83 1013.3
20260905000616 87 137 4.0 5.0 0.00 0.18 0.18 83 1013.1
20260905000112 87 143 4.0 7.0 0.00 0.18 0.18 82 1013.2
20260904235606 87 152 2.0 7.0 0.00 0.18 0.18 82 1013.3
20260904235105 87 179 1.0 4.0 0.00 0.18 0.18 82 1013.4
20260904234600 87 135 2.0 8.0 0.00 0.18 0.18 82 1013.2
20260904234056 88 184 2.0 7.0 0.00 0.18 0.18 81 1013.2
20260904233556 88 217 2.0 5.0 0.00 0.18 0.18 81 1013.1
20260904233052 88 155 1.0 6.0 0.00 0.18 0.18 80 1013.3
20260904232549 88 239 2.0 9.0 0.00 0.18 0.18 80 1013.0
20260904232045 89 132 4.0 10.0 0.00 0.18 0.18 79 1013.4
20260904231540 89 200 3.0 5.0 0.00 0.18 0.18 79 1013.2
20260904231036 89 108 3.0 8.0 0.00 0.18 0.18 78 1013.3
20260904230534 89 160 2.0 5.0 0.00 0.18 0.18 78 1013.4
20260904230031 89 144 4.0 9.0 0.00 0.18 0.18 78 1013.1
20260904225528 90 165 2.0 4.0 0.00 0.18 0.18 79 1013.0
20260904225028 91 238 0.0 7.0 0.00 0.18 0.18 78 1013.4
20260904224523 90 158 2.0 8.0 0.00 0.18 0.18 78 1013.2
20260904224023 91 150 4.0 7.0 0.00 0.18 0.18 78 1013.4
20260904223521 91 212 2.0 5.0 0.00 0.18 0.18 77 1013.3
20260904223018 92 174 4.0 5.0 0.00 0.18 0.18 76 1013.3
20260904222513 91 232 1.0 7.0 0.00 0.18 0.18 78 1013.5
20260904222008 91 95 1.0 12.0 0.00 0.18 0.18 79 1013.2
20260904221503 90 155 2.0 6.0 0.00 0.18 0.18 78 1013.2
20260904220957 90 154 2.0 11.0 0.00 0.18 0.18 80 1013.0
20260904220457 90 129 1.0 5.0 0.00 0.18 0.18 80 1013.1
20260904215952 89 179 2.0 8.0 0.00 0.18 0.18 80 1013.2
20260904215448 89 105 1.0 7.0 0.00 0.18 0.18 81 1013.2
20260904214943 90 171 2.0 7.0 0.00 0.18 0.18 78 1013.3
20260904214438 90 158 5.0 8.0 0.00 0.18 0.18 77 1013.2
20260904213933 91 175 2.0 8.0 0.00 0.18 0.18 75 1013.1
20260904213426 91 191 1.0 9.0 0.00 0.18 0.18 76 1013.3
20260904212923 92 160 2.0 5.0 0.00 0.18 0.18 75 1013.6
20260904212422 92 94 5.0 11.0 0.00 0.18 0.18 74 1013.8
20260904211918 92 178 3.0 7.0 0.00 0.18 0.18 72 1013.5
20260904211413 92 168 4.0 8.0 0.00 0.18 0.18 72 1013.4
20260904210908 92 176 3.0 6.0 0.00 0.18 0.18 72 1013.5
20260904210407 92 189 3.0 5.0 0.00 0.18 0.18 72 1013.8
20260904205903 93 191 2.0 5.0 0.00 0.18 0.18 74 1013.8
20260904205358 92 186 2.0 5.0 0.00 0.18 0.18 74 1014.0
20260904204855 93 180 2.0 4.0 0.00 0.18 0.18 74 1013.9
20260904204351 92 201 2.0 7.0 0.00 0.18 0.18 75 1014.0
20260904203847 91 203 0.0 5.0 0.00 0.18 0.18 76 1014.0
20260904203343 90 218 1.0 4.0 0.00 0.18 0.18 77 1014.1
20260904202839 91 149 3.0 5.0 0.00 0.18 0.18 75 1014.1
20260904202335 90 259 0.0 4.0 0.00 0.18 0.18 80 1014.2
20260904201830 89 113 1.0 4.0 0.00 0.18 0.18 81 1014.3
20260904201330 87 212 2.0 3.0 0.00 0.18 0.18 86 1014.6
20260904200826 86 200 1.0 3.0 0.00 0.18 0.18 88 1014.7
20260904200324 87 172 2.0 3.0 0.00 0.18 0.18 88 1014.4
20260904195819 88 142 2.0 4.0 0.00 0.18 0.18 88 1014.3
20260904195317 87 221 0.0 3.0 0.00 0.18 0.18 93 1014.5
20260904194812 86 269 0.0 2.0 0.00 0.18 0.18 99 1014.6
20260904194312 82 297 0.0 2.0 0.00 0.18 0.18 97 1014.7
20260904193807 80 231 1.0 3.0 0.05 0.18 0.18 99 1014.6
20260904193302 79 187 0.0 3.0 0.14 0.18 0.18 99 1014.8
20260904192757 79 220 0.0 3.0 0.14 0.17 0.17 99 1014.9
20260904192253 79 160 1.0 6.0 0.02 0.15 0.15 99 1014.8
20260904191749 80 216 0.0 4.0 0.02 0.15 0.15 99 1014.8
20260904191246 80 202 2.0 6.0 0.00 0.15 0.15 99 1015.1
20260904190742 80 200 1.0 3.0 0.00 0.15 0.15 99 1015.3
20260904190237 80 227 0.0 2.0 0.00 0.15 0.15 99 1015.2
20260904185734 79 117 0.0 1.0 0.00 0.15 0.15 99 1014.9
20260904185228 79 269 0.0 1.0 0.00 0.15 0.15 99 1015.1
20260904184727 79 124 0.0 1.0 0.07 0.15 0.15 99 1015.4
20260904184223 79 297 0.0 5.0 0.26 0.15 0.15 97 1015.2
20260904183718 81 317 0.0 5.0 0.71 0.13 0.13 97 1015.3
20260904183213 83 352 0.0 3.0 0.47 0.08 0.08 94 1015.4
20260904182708 87 11 2.0 5.0 0.00 0.00 0.00 82 1015.2
20260904182203 87 322 2.0 8.0 0.00 0.00 0.00 77 1015.6
20260904181659 88 4 3.0 4.0 0.00 0.00 0.00 78 1015.6
20260904181158 88 304 0.0 6.0 0.00 0.00 0.00 79 1015.6
20260904180654 89 348 2.0 2.0 0.00 0.00 0.00 79 1015.8
20260904180149 89 328 0.0 4.0 0.00 0.00 0.00 79 1015.7
20260904175648 90 210 0.0 4.0 0.00 0.00 0.00 76 1015.7
20260904175146 90 329 0.0 2.0 0.00 0.00 0.00 76 1015.7
20260904174642 90 325 0.0 2.0 0.00 0.00 0.00 76 1015.9
20260904174138 91 268 1.0 3.0 0.00 0.00 0.00 76 1016.0
20260904173633 90 345 0.0 5.0 0.00 0.00 0.00 77 1016.0
20260904173128 91 329 0.0 3.0 0.00 0.00 0.00 75 1015.9
20260904172625 92 250 0.0 2.0 0.00 0.00 0.00 75 1015.9
20260904172124 93 322 2.0 4.0 0.00 0.00 0.00 71 1015.9
20260904171619 93 75 0.0 4.0 0.00 0.00 0.00 74 1015.9
20260904171114 91 273 0.0 5.0 0.00 0.00 0.00 75 1015.9
20260904170610 93 224 3.0 6.0 0.00 0.00 0.00 71 1015.9
20260904170106 94 234 1.0 3.0 0.00 0.00 0.00 71 1016.1
20260904165605 94 247 2.0 3.0 0.00 0.00 0.00 72 1016.1
20260904165104 94 336 1.0 2.0 0.00 0.00 0.00 70 1016.1
20260904164559 93 321 0.0 5.0 0.00 0.00 0.00 75 1016.1
20260904164055 91 74 3.0 8.0 0.00 0.00 0.00 75 1016.1
20260904163555 91 71 0.0 6.0 0.00 0.00 0.00 77 1016.2
20260904163050 88 178 2.0 3.0 0.00 0.00 0.00 80 1016.3
20260904162544 87 203 1.0 3.0 0.00 0.00 0.00 83 1016.1
20260904162040 87 224 3.0 6.0 0.00 0.00 0.00 83 1016.3
20260904161534 86 106 2.0 4.0 0.00 0.00 0.00 84 1016.2
20260904161030 86 137 2.0 3.0 0.00 0.00 0.00 85 1016.1
20260904160525 86 132 2.0 4.0 0.00 0.00 0.00 86 1016.3
20260904160022 86 231 3.0 6.0 0.00 0.00 0.00 85 1016.1
20260904155520 87 231 0.0 2.0 0.00 0.00 0.00 86 1016.1
20260904155020 87 182 0.0 2.0 0.00 0.00 0.00 86 1016.2
20260904154514 86 176 1.0 5.0 0.00 0.00 0.00 86 1016.2
20260904154009 86 151 2.0 6.0 0.00 0.00 0.00 86 1016.1
20260904153509 85 156 4.0 7.0 0.00 0.00 0.00 88 1016.0
20260904153006 85 166 4.0 6.0 0.00 0.00 0.00 90 1016.2
20260904152501 85 136 3.0 6.0 0.00 0.00 0.00 91 1016.3
20260904151955 85 0 0.0 4.0 0.00 0.00 0.00 90 1015.9
20260904151450 85 172 0.0 3.0 0.00 0.00 0.00 89 1015.6
20260904150945 84 120 2.0 5.0 0.00 0.00 0.00 90 1015.5
20260904150440 84 109 3.0 8.0 0.00 0.00 0.00 90 1015.6
20260904145938 84 166 3.0 6.0 0.00 0.00 0.00 91 1015.5
20260904145434 84 126 5.0 7.0 0.00 0.00 0.00 91 1015.6
20260904144929 84 181 1.0 7.0 0.00 0.00 0.00 92 1015.6
20260904144425 84 181 1.0 7.0 0.00 0.00 0.00 91 1015.6
20260904143921 84 106 2.0 4.0 0.00 0.00 0.00 92 1015.6
20260904143417 84 129 0.0 3.0 0.00 0.00 0.00 92 1015.7
20260904142914 84 173 1.0 3.0 0.00 0.00 0.00 92 1015.3
20260904142409 84 135 0.0 1.0 0.00 0.00 0.00 92 1015.4
20260904141903 84 210 0.0 2.0 0.00 0.00 0.00 92 1015.4
20260904141358 84 224 0.0 3.0 0.00 0.00 0.00 92 1015.4
20260904140855 84 111 0.0 2.0 0.00 0.00 0.00 92 1015.4
20260904140349 84 107 2.0 3.0 0.00 0.00 0.00 92 1015.3
20260904135848 83 182 0.0 3.0 0.00 0.00 0.00 93 1015.4
20260904135343 83 200 0.0 4.0 0.00 0.00 0.00 94 1015.3
20260904134839 82 189 1.0 2.0 0.00 0.00 0.00 95 1015.3
20260904134334 82 145 0.0 1.0 0.00 0.00 0.00 96 1015.2
20260904133834 82 191 0.0 2.0 0.00 0.00 0.00 96 1015.3
20260904133329 82 205 0.0 2.0 0.00 0.00 0.00 95 1015.2
20260904132829 82 193 0.0 1.0 0.00 0.00 0.00 95 1015.0
20260904132324 82 185 0.0 0.0 0.00 0.00 0.00 95 1015.0
20260904131824 83 185 0.0 0.0 0.00 0.00 0.00 95 1014.8
20260904131320 83 105 0.0 1.0 0.00 0.00 0.00 94 1015.1
20260904130820 83 233 0.0 2.0 0.00 0.00 0.00 94 1015.2
20260904130319 84 193 0.0 1.0 0.00 0.00 0.00 93 1015.1
20260904125815 83 0 0.0 0.0 0.00 0.00 0.00 95 1015.1
20260904125311 82 269 0.0 0.0 0.00 0.00 0.00 97 1014.9
20260904124810 80 113 0.0 0.0 0.00 0.00 0.00 99 1014.8
20260904124307 80 113 0.0 0.0 0.00 0.00 0.00 99 1014.8
20260904123801 80 122 1.0 2.0 0.00 0.00 0.00 99 1014.7
20260904123256 79 142 0.0 1.0 0.00 0.00 0.00 99 1014.6
20260904122751 79 117 0.0 1.0 0.00 0.00 0.00 99 1014.5
20260904122251 79 164 0.0 2.0 0.00 0.00 0.00 99 1014.5
20260904121746 79 13 0.0 0.0 0.00 0.00 0.00 99 1014.5
20260904121243 79 13 0.0 0.0 0.00 0.00 0.00 99 1014.3
20260904120739 79 13 0.0 0.0 0.00 0.00 0.00 99 1014.4
20260904120234 79 13 0.0 0.0 0.00 0.00 0.00 99 1014.3
20260904115729 79 202 0.0 1.0 0.00 0.00 0.00 99 1014.3
20260904115224 79 185 0.0 1.0 0.00 0.00 0.00 99 1014.1
20260904114719 79 164 0.0 0.0 0.00 0.00 0.00 99 1014.1
20260904114213 79 333 0.0 0.0 0.00 0.00 0.00 99 1014.2
20260904113708 80 309 0.0 1.0 0.00 0.00 0.00 99 1014.2
20260904113207 80 129 0.0 1.0 0.00 0.00 0.00 99 1014.5
20260904112703 80 242 0.0 1.0 0.00 0.00 0.00 99 1014.2
20260904112158 80 230 0.0 1.0 0.00 0.00 0.00 99 1014.3
20260904111654 80 142 0.0 0.0 0.00 0.00 0.00 99 1014.4
20260904111149 80 134 0.0 2.0 0.00 0.00 0.00 99 1014.2
20260904110644 80 185 0.0 2.0 0.00 0.00 0.00 99 1014.2
20260904110143 80 230 0.0 1.0 0.00 0.00 0.00 99 1014.2
20260904105638 80 185 0.0 1.0 0.00 0.00 0.00 99 1014.3
20260904105133 80 195 0.0 2.0 0.00 0.00 0.00 99 1014.4
20260904104628 80 321 0.0 1.0 0.00 0.00 0.00 98 1014.3
20260904104124 80 129 0.0 1.0 0.00 0.00 0.00 98 1014.3
20260904103620 80 333 0.0 1.0 0.00 0.00 0.00 98 1014.3
20260904103116 80 209 0.0 1.0 0.00 0.00 0.00 98 1014.1
20260904102612 80 75 0.0 1.0 0.00 0.00 0.00 98 1014.0
20260904102106 80 254 0.0 2.0 0.00 0.00 0.00 98 1013.9
20260904101603 80 195 0.0 1.0 0.00 0.00 0.00 98 1013.8
20260904101058 80 202 0.0 2.0 0.00 0.00 0.00 98 1014.0
20260904100554 80 230 0.0 1.0 0.00 0.00 0.00 97 1013.8
20260904100049 80 231 0.0 1.0 0.00 0.00 0.00 97 1013.8
20260904095544 80 255 0.0 0.0 0.00 0.00 0.00 97 1013.7
20260904095039 80 227 0.0 2.0 0.00 0.00 0.00 97 1013.8
20260904094534 80 186 0.0 2.0 0.00 0.00 0.00 97 1013.8
20260904094029 80 195 0.0 1.0 0.00 0.00 0.00 97 1013.8
20260904093526 80 217 0.0 0.0 0.00 0.00 0.00 97 1013.7
20260904093026 81 217 0.0 1.0 0.00 0.00 0.00 97 1013.9
20260904092521 81 205 0.0 1.0 0.00 0.00 0.00 97 1013.7
20260904092018 81 230 0.0 1.0 0.00 0.00 0.00 96 1013.8
20260904091514 81 205 0.0 1.0 0.00 0.00 0.00 96 1013.6
20260904091013 81 217 0.0 1.0 0.00 0.00 0.00 96 1013.6
20260904090508 81 205 0.0 1.0 0.00 0.00 0.00 96 1013.7
20260904090004 81 230 0.0 0.0 0.00 0.00 0.00 96 1013.4
20260904085459 81 230 0.0 0.0 0.00 0.00 0.00 95 1013.5
20260904084953 81 231 0.0 1.0 0.00 0.00 0.00 95 1013.6
20260904084449 81 235 0.0 0.0 0.00 0.00 0.00 95 1013.5
20260904083944 81 233 0.0 0.0 0.00 0.00 0.00 95 1013.6
20260904083441 81 228 0.0 1.0 0.00 0.00 0.00 95 1013.3
20260904082936 81 230 0.0 0.0 0.00 0.00 0.00 95 1013.6
20260904082431 82 230 0.0 0.0 0.00 0.00 0.00 94 1013.5
20260904081926 82 230 0.0 1.0 0.00 0.00 0.00 94 1013.7
20260904081421 82 230 0.0 1.0 0.00 0.00 0.00 94 1013.5
20260904080917 82 142 0.0 3.0 0.00 0.00 0.00 94 1013.6
20260904080412 82 142 0.0 1.0 0.00 0.00 0.00 94 1013.8
20260904075909 82 242 0.0 1.0 0.00 0.00 0.00 94 1013.7
20260904075404 82 154 0.0 0.0 0.00 0.00 0.00 93 1013.7
20260904074902 82 154 0.0 1.0 0.00 0.00 0.00 93 1013.6
20260904074358 82 246 0.0 1.0 0.00 0.00 0.00 93 1013.5
20260904073853 82 224 0.0 1.0 0.00 0.00 0.00 93 1013.8
20260904073349 82 235 0.0 2.0 0.00 0.00 0.00 93 1013.9
20260904072845 82 269 0.0 1.0 0.00 0.00 0.00 93 1013.8
20260904072345 82 103 0.0 1.0 0.00 0.00 0.00 93 1013.6
20260904071840 82 113 1.0 2.0 0.00 0.00 0.00 93 1013.8
20260904071335 82 137 0.0 2.0 0.00 0.00 0.00 93 1013.9
20260904070830 82 109 0.0 2.0 0.00 0.00 0.00 93 1013.8
20260904070329 82 89 0.0 1.0 0.00 0.00 0.00 93 1013.8
20260904065824 82 246 0.0 0.0 0.00 0.00 0.00 92 1013.9
20260904065320 82 242 0.0 1.0 0.00 0.00 0.00 92 1013.9
20260904064815 82 240 0.0 2.0 0.00 0.00 0.00 92 1013.9
20260904064311 82 112 1.0 2.0 0.00 0.00 0.00 92 1014.0
20260904063807 82 252 0.0 1.0 0.00 0.00 0.00 92 1013.8
20260904063303 83 242 0.0 1.0 0.00 0.00 0.00 92 1013.9
20260904062758 83 258 0.0 2.0 0.00 0.00 0.00 92 1013.7
20260904062253 83 217 0.0 3.0 0.00 0.00 0.00 92 1013.9
20260904061749 83 218 0.0 4.0 0.00 0.00 0.00 92 1013.8
20260904061245 83 269 0.0 2.0 0.00 0.00 0.00 92 1014.1
20260904060742 83 221 0.0 1.0 0.00 0.00 0.00 92 1014.0
20260904060237 83 184 0.0 2.0 0.00 0.00 0.00 92 1013.9
20260904055732 82 167 1.0 3.0 0.00 0.00 0.00 92 1014.0
20260904055227 82 89 0.0 1.0 0.00 0.00 0.00 92 1014.0
20260904054722 82 117 0.0 2.0 0.00 0.00 0.00 93 1013.8
20260904054219 82 242 0.0 2.0 0.00 0.00 0.00 93 1013.9
20260904053714 83 230 0.0 3.0 0.00 0.00 0.00 93 1014.0
20260904053213 83 209 0.0 1.0 0.00 0.00 0.00 93 1013.9
20260904052709 83 202 0.0 4.0 0.00 0.00 0.00 94 1014.0
20260904052206 83 117 0.0 2.0 0.00 0.00 0.00 94 1014.0
20260904051702 83 209 0.0 2.0 0.00 0.00 0.00 94 1014.0
20260904051156 83 224 0.0 3.0 0.00 0.00 0.00 94 1014.1
20260904050652 83 210 0.0 2.0 0.00 0.00 0.00 93 1014.0
20260904050148 83 190 0.0 2.0 0.00 0.00 0.00 94 1014.0
20260904045648 83 202 1.0 3.0 0.00 0.00 0.00 93 1013.9
20260904045148 83 113 1.0 2.0 0.00 0.00 0.00 93 1014.1
20260904044643 83 194 0.0 3.0 0.00 0.00 0.00 93 1014.0
20260904044140 83 207 2.0 3.0 0.00 0.00 0.00 93 1014.2
20260904043636 83 182 0.0 3.0 0.00 0.00 0.00 93 1014.1
20260904043131 83 202 2.0 4.0 0.00 0.00 0.00 92 1014.2
20260904042627 83 198 2.0 8.0 0.00 0.00 0.00 92 1014.2
20260904042123 83 181 1.0 3.0 0.00 0.00 0.00 92 1014.1
20260904041618 83 137 0.0 3.0 0.00 0.00 0.00 92 1014.1
20260904041114 83 146 1.0 4.0 0.00 0.00 0.00 91 1014.1
20260904040609 83 158 1.0 3.0 0.00 0.00 0.00 91 1014.1
20260904040106 83 203 2.0 2.0 0.00 0.00 0.00 91 1014.2
20260904035601 83 139 1.0 3.0 0.00 0.00 0.00 91 1014.0
20260904035100 83 126 3.0 3.0 0.00 0.00 0.00 91 1014.1
20260904034555 83 201 1.0 3.0 0.00 0.00 0.00 91 1014.2
20260904034050 83 192 0.0 5.0 0.00 0.00 0.00 91 1014.2
20260904033547 83 197 0.0 2.0 0.00 0.00 0.00 91 1014.1
20260904033044 83 196 0.0 4.0 0.00 0.00 0.00 91 1014.1
20260904032539 83 135 0.0 2.0 0.00 0.00 0.00 91 1014.2
20260904032038 83 123 0.0 3.0 0.00 0.00 0.00 91 1014.3
20260904031538 83 213 1.0 3.0 0.00 0.00 0.00 91 1014.3
20260904031034 83 145 0.0 2.0 0.00 0.00 0.00 91 1014.3
20260904030530 83 184 0.0 2.0 0.00 0.00 0.00 91 1014.3
20260904030025 83 114 3.0 3.0 0.00 0.00 0.00 90 1014.3
20260904025520 83 150 2.0 5.0 0.00 0.00 0.00 90 1014.3
20260904025015 83 152 3.0 4.0 0.00 0.00 0.00 90 1014.2
20260904024510 83 156 0.0 3.0 0.00 0.00 0.00 90 1014.3
20260904024006 84 161 1.0 3.0 0.00 0.00 0.00 90 1014.2
20260904023502 84 166 0.0 3.0 0.00 0.00 0.00 90 1014.2
20260904022956 84 205 2.0 2.0 0.00 0.00 0.00 91 1014.1
20260904022452 84 236 2.0 2.0 0.00 0.00 0.00 91 1014.3
20260904021949 84 164 1.0 3.0 0.00 0.00 0.00 90 1013.9
20260904021444 84 161 2.0 4.0 0.00 0.00 0.00 90 1013.6
20260904020944 84 180 2.0 8.0 0.00 0.00 0.00 91 1013.6
20260904020440 84 198 2.0 6.0 0.00 0.00 0.00 91 1013.6
20260904015938 84 204 1.0 3.0 0.00 0.00 0.00 91 1013.8
20260904015434 84 110 3.0 5.0 0.00 0.00 0.00 91 1013.6
20260904014932 84 151 2.0 4.0 0.00 0.00 0.00 91 1013.5
20260904014427 84 176 2.0 5.0 0.00 0.00 0.00 91 1013.7
20260904013923 84 161 3.0 5.0 0.00 0.00 0.00 91 1013.5
20260904013419 84 93 3.0 8.0 0.00 0.00 0.00 91 1013.3
20260904012915 84 162 0.0 5.0 0.00 0.00 0.00 90 1013.4
20260904012414 84 163 2.0 4.0 0.00 0.00 0.00 89 1013.3
20260904011909 84 168 2.0 7.0 0.00 0.00 0.00 89 1013.5
20260904011404 84 142 2.0 4.0 0.00 0.00 0.00 88 1013.2
20260904010859 84 186 2.0 4.0 0.00 0.00 0.00 88 1013.3